{"data":{"norad_id":40146,"epoch":"2026-05-25T02:46:20.902080Z","epoch_age_seconds":55139,"freshness":"FRESH","line1":"1 40146U 14054A   26145.11551970 -.00000149  00000+0  00000+0 0  9999","line2":"2 40146   0.0443  82.0400 0002055 338.5303  19.7369  1.00271040 42791","mean_motion":1.0027104,"eccentricity":0.0002055,"inclination_deg":0.0443,"raan_deg":82.04,"arg_perigee_deg":338.5303,"mean_anomaly_deg":19.7369,"bstar":0,"rev_number":4279,"period_min":1436.1075740313,"perigee_km":35778.138917691,"apogee_km":35795.468708365,"semimajor_km":42164.940813028,"source":"CELESTRAK","updated_at":"2026-05-25T13:38:13.951596Z"}}